Regional Weather Roundup
Issued by NWS

Home | Current Version | Previous Version | Text Only | Print | Product List | Glossary On
Versions: 1 2 3 4 5 6 7 8 9 10 11 12 13 14 15 16 17 18 19 20 21 22 23 24 25 26 27 28 29 30 31 32 33 34 35 36 37 38 39 40 41 42 43 44 45 46 47 48 49 50
000
ASUS44 KBMX 132210
RWRAL

ALABAMA REGIONAL WEATHER ROUNDUP
NATIONAL WEATHER SERVICE BIRMINGHAM AL
400 PM CST SAT FEB 13 2016

NOTE: "FAIR" INDICATES FEW OR NO CLOUDS BELOW 12,000 FEET
WITH NO SIGNIFICANT WEATHER AND/OR OBSTRUCTIONS TO VISIBILITY.

THE REMARK "TC" DENOTES TEMPERATURE IN DEGREES CELSIUS.

ALZ001>011-014-016>018-020-132300-
NORTH ALABAMA

CITY           SKY/WX    TMP DP  RH WIND       PRES   REMARKS
MUSCLE SHOALS  SUNNY     39   4  23 NE6       30.46F WCI  35
HUNTSVILLE     SUNNY     38   3  23 N7        30.44S WCI  33
DECATUR        SUNNY     37   3  24 MISG      30.46S
HALEYVILLE     FAIR      38   7  27 VRB6      30.43F WCI  33
GADSDEN        SUNNY     40  10  29 NW9       30.41R WCI  34
$$

ALZ012-013-022-023-030>036-040>044-132300-
WEST CENTRAL ALABAMA

CITY           SKY/WX    TMP DP  RH WIND       PRES   REMARKS
TUSCALOOSA     SUNNY     47   4  17 N13       30.41F
$$

ALZ015-024>027-033>036-040>044-132300-
CENTRAL ALABAMA

CITY           SKY/WX    TMP DP  RH WIND       PRES   REMARKS
BIRMINGHAM     SUNNY     42   5  21 N10       30.42R
MONTGOMERY     SUNNY     53   9  17 N8        30.37R
SHELBY CO ARPT SUNNY     45   8  22 N8        30.38F
MAXWELL AFB    SUNNY     51   9  18 N12       30.35S
GREENVILLE     FAIR      52   8  17 N6        30.33S
$$

ALZ019-021-028-029-037-038-045>048-132300-
EAST CENTRAL ALABAMA

CITY           SKY/WX    TMP DP  RH WIND       PRES   REMARKS
ANNISTON       SUNNY     43   4  19 N8G17     30.39R
ALEXANDER CITY SUNNY     46  15  29 NW9       30.35S
AUBURN         NOT AVBL
$$

ALZ051>064-132300-
SOUTHWEST ALABAMA

CITY           SKY/WX    TMP DP  RH WIND       PRES   REMARKS
MOBILE         MOSUNNY   59  22  24 N9        30.34S
BROOKLEY FIELD SUNNY     58  24  27 N10       30.34F
EVERGREEN      SUNNY     56  14  19 N9        30.34S
$$

ALZ049-050-065>069-132300-
SOUTHEAST ALABAMA

CITY           SKY/WX    TMP DP  RH WIND       PRES   REMARKS
DOTHAN         SUNNY     55  11  17 NW8       30.34S
OZARK          SUNNY     55  14  19 NW10      30.31S
TROY           SUNNY     53  12  19 N12       30.34F
EUFAULA        FAIR      54  13  19 N7        30.32S
$$



USA.gov is the U.S. government's official web portal to all federal, state and local government web resources and services.